Regional Weather Roundup
Issued by NWS

Home | Current Version | Previous Version | Graphics & Text | Print | Product List | Glossary On
Versions: 1 2 3 4 5 6 7 8 9 10 11 12 13 14 15 16 17 18 19 20 21 22 23 24 25 26 27 28 29 30 31 32 33 34 35 36 37 38 39 40 41 42 43 44 45 46 47 48 49 50
000
ASUS43 KFSD 281002
RWRSD

WEATHER ROUNDUP FOR SOUTH DAKOTA
NATIONAL WEATHER SERVICE SIOUX FALLS SD
500 AM CDT WED SEP 28 2016

NOTE: "FAIR" INDICATES FEW OR NO CLOUDS BELOW 12,000 FEET WITH NO
SIGNIFICANT WEATHER AND/OR OBSTRUCTIONS TO VISIBILITY.


SDZ001>005-009-010-012>017-281100-
NORTHWEST AND NORTH CENTRAL SOUTH DAKOTA

CITY           SKY/WX    TMP DP  RH WIND       PRES   REMARKS
BUFFALO          N/A     49  44  83 W7        30.07R
FAITH            N/A     50  43  77 S7        30.12R
MOBRIDGE       CLOUDY    43  36  76 SE8       30.13R
$$

SDZ012>016-024>037-041>051-057-063-072>074-281100-
SOUTHWEST AND SOUTH CENTRAL SOUTH DAKOTA

CITY           SKY/WX    TMP DP  RH WIND       PRES   REMARKS
RAPID CTY ARPT CLEAR     54  40  59 NW10      30.15R
PIERRE         CLEAR     42  36  79 NE7       30.12R
CUSTER         CLEAR     49  34  56 NW5       30.26R
ELLSWORTH AFB  CLEAR     53  41  63 W5        30.14R
PHILIP         CLEAR     41  39  93 W5        30.12R
PINE RIDGE     CLEAR     37  36  96 E3        30.16R
WINNER         FAIR      50  42  74 CALM      30.12R
$$

SDZ004>011-016>023-039-040-281100-
NORTHEAST SOUTH DAKOTA

CITY           SKY/WX    TMP DP  RH WIND       PRES   REMARKS
ABERDEEN       CLOUDY    40  37  89 N6        30.13R
WATERTOWN      CLOUDY    47  42  83 N8        30.09R
SISSETON         N/A     39  37  92 NW5       30.11R
$$

SDZ017-020-022-023-036>040-048>070-281100-
SOUTHEAST SOUTH DAKOTA

CITY           SKY/WX    TMP DP  RH WIND       PRES   REMARKS
SIOUX FALLS    MOCLDY    47  42  83 N8        30.07R
HURON          CLOUDY    35  34  96 NW7       30.12R WCI  29
CHAMBERLAIN    CLOUDY    48  37  65 NE3       30.12R
MITCHELL       CLOUDY    39  36  89 NW6       30.10R
YANKTON        CLOUDY    45  39  81 NW8       30.06R
$$

ABBREVIATIONS USED IN REMARKS
   TC - TEMPERATURE IN CELSIUS
  WCI - WIND CHILL INDEX
   HX - HEAT INDEX
  VSB - VISIBILITY





USA.gov is the U.S. government's official web portal to all federal, state and local government web resources and services.